Weather Roundup
Issued by NWS

Home | Current Version | Previous Version | Graphics & Text | Print | Product List | Glossary Off
Versions: 1 2 3 4 5 6 7 8 9 10 11 12 13 14 15 16 17 18 19 20 21 22 23 24 25 26 27 28 29 30 31 32 33 34 35 36 37 38 39 40 41 42 43 44 45 46 47 48 49 50

476
NZUS93 KARX 230459
HRRWXR

CURRENT HOURLY OBSERVATIONS ACROSS
MUCH OF THE UPPER MISSISSIPPI VALLEY
NATIONAL WEATHER SERVICE LA CROSSE WI
1100 PM CST THU FEB 22 2018


...SOUTHEAST MINNESOTA...


CITY           SKY/WX    TMP DP  RH WIND       PRES   REMARKS
ROCHESTER      FRZ RAIN  28  28 100 SE21      30.12F FOG     WCI  15
ROCHESTER/MAYO CLOUDY    28  28 100 SE7       30.16F WCI  21
WINONA         CLOUDY    30  28  93 SE12      30.19F FOG     WCI  21
AUSTIN         MIX PCPN  30  28  93 SW7       30.17R WCI  23
ALBERT LEA     NOT AVBL
DODGE CENTER   MIX PCPN  28  27  93 SE5       30.17R WCI  23
PRESTON        CLOUDY    29  28  95 SE12G18   30.14F FOG     WCI  19
OWATONNA       LGT SNOW  28  27  93 SE3       30.19S
FARIBAULT      MIX PCPN  27  27 100 CALM      30.21R VSB 3/4
$$

...ELSEWHERE IN MINNESOTA...


CITY           SKY/WX    TMP DP  RH WIND       PRES   REMARKS
MINNEAPOLIS    HVY SNOW  26  26 100 SE7       30.23S VSB 1/4 WCI  18
INTNL FALLS    MOCLDY    20   7  57 CALM      30.25F
DULUTH         LGT SNOW  22  18  85 E8        30.25F VSB 3/4 WCI  12
RED WING       LGT SNOW  28  25  86 E3        30.21R
REDWOOD FALLS  LGT SNOW  24  23  96 E8        30.16F FOG     WCI  15
MANKATO        LGT SNOW  26  25  96 E6        30.18F FOG     WCI  19
WORTHINGTON    LGT SNOW  25  24  96 S6        30.12F FOG     WCI  18
FAIRMONT       MIX PCPN  30  29  96 SE7       30.15F FOG     WCI  23
$$

...SOUTHWEST WISCONSIN...


CITY           SKY/WX    TMP DP  RH WIND       PRES   REMARKS
LA CROSSE      CLOUDY    32  29  88 SE7       30.21F WCI  26
PRAIRIE DU CHI CLOUDY    33  31  93 E12       30.22F FOG     WCI  24
BOSCOBEL       CLOUDY    34  31  88 VRB5      30.24F WCI  30
LONE ROCK      FRZ RAIN  32  32 100 E14       30.26F VSB 1   WCI  22
PLATTEVILLE      N/A     33  33 100 E15       30.23F WCI  22
FORT MC COY    MIX PCPN  30  29  96 E10       30.26F WCI  21
CAMP DOUGLAS   FRZ DRZL  30  30 100 E9        30.25F FOG     WCI  22
MAUSTON-NEW LI MIX PCPN  30  29  96 SE8       30.28F WCI  23
VIROQUA        CLOUDY    31  31 100 SE14G21   30.21F WCI  20
WIS DELLS      MIX PCPN  30  29  96 E8        30.28F WCI  23
$$

...ELSEWHERE IN WISCONSIN...


CITY           SKY/WX    TMP DP  RH WIND       PRES   REMARKS
MILWAUKEE      CLOUDY    36  31  82 E10       30.31F WCI  28
MADISON        CLOUDY    31  30  96 E5        30.28F FOG     WCI  26
GREEN BAY      CLOUDY    29  25  85 NE8       30.35F WCI  21
EAU CLAIRE     FRZ RAIN  27  24  89 E13G24    30.22F FOG     WCI  16
BLACK RVR FLS  MIX PCPN  29  28  97 SE6       30.25F WCI  23
MEDFORD        LGT SNOW  24  20  87 E10       30.24F WCI  13
WAUSAU         FLURRIES  25  22  88 E10       30.26F WCI  15
WIS RAPIDS     FRZ RAIN  27  23  85 E15       30.28F FOG     WCI  15
MARSHFIELD     CLOUDY    26  23  88 E13       30.24F WCI  15
RICE LAKE      LGT SNOW  26  25  94 E9        30.24F VSB 1   WCI  17
$$

...NORTHEAST IOWA...


CITY           SKY/WX    TMP DP  RH WIND       PRES   REMARKS
WATERLOO       MIX PCPN  33  33 100 SE16      30.15F FOG     WCI  23
DUBUQUE        CLOUDY    32  30  92 E14       30.19F FOG     WCI  22
DECORAH        MIX PCPN  32  32 100 SE13G20   30.15F WCI  22
MASON CITY     FRZ RAIN  32  32 100 S9        30.17R FOG     WCI  24
CHARLES CITY   MIX PCPN  32  32 100 SE18G26   30.13F WCI  20
OELWEIN        MIX PCPN  32  32 100 SE20      30.15F WCI  20
$$

...ELSEWHERE IN IOWA...


CITY           SKY/WX    TMP DP  RH WIND       PRES   REMARKS
DES MOINES     LGT RAIN  33  32  96 SW5       30.18S FOG     WCI  29
IOWA CITY      MIX PCPN  37  35  92 SE9       30.20F VSB 1   WCI  30
FORT DODGE     MIX PCPN  32  31  96 SW7       30.16F FOG     WCI  26
MARSHALLTOWN   LGT RAIN  34  34 100 SE9       30.14F VSB 3/4 WCI  27
CEDAR RAPIDS   FOG       35  35 100 SE14      30.16F VSB 3/4 WCI  26
$$

...NORTHERN ILLINOIS...


CITY           SKY/WX    TMP DP  RH WIND       PRES   REMARKS
CHICAGO-OHARE  CLOUDY    39  35  86 SE16      30.29S WCI  30
CHICAGO-MIDWAY CLOUDY    40  36  86 SE9       30.31S FOG     WCI  34
MOLINE         CLOUDY    37  36  96 E9        30.21F FOG     WCI  30
ROCKFORD       LGT RAIN  36  33  89 E5        30.29S FOG     WCI  32
PEORIA         FOG       42  41  96 SE8       30.24F VSB 1
$$

NOTE: "FAIR" INDICATES FEW OR NO CLOUDS BELOW 12,000 FEET WITH NO
SIGNIFICANT WEATHER AND/OR OBSTRUCTIONS TO VISIBILITY. WIND
SPEEDS ARE IN MILES-PER-HOUR.




USA.gov is the U.S. government's official web portal to all federal, state and local government web resources and services.